Retour au catalogue

STARLINK-37154

ActifCommunicationsSSO
NORAD 68316·PAYLOAD·🇺🇸 United States

Lancé Mar 20, 2026 depuis Vandenberg Space Force Base

Loading…

Prochains Passages (prochaines 24 heures)

TLE

FraisSource: CelesTrak SupGP

Époque: Sep 15, 2026, 04:07 UTC

1 68316C 26057Y   26258.17201389 -.00010152  00000+0 -31509-3 0  2587
2 68316  97.2850  23.5756 0001138  93.0028 224.2289 15.33451036    11

Suivez STARLINK-37154 en temps réel avec AllMySat

Download on the App Store